This is the latest recevied weather packets stored in our database for station/object DK6GC-10. If no packets are shown the sender has not sent any weather packets the latest 10 day(s).
| Time | Temp. | Humidity | Pressure | Rain* | Wind** | Luminosity | Snow |
|---|---|---|---|---|---|---|---|
| 1788216322 | 16.11° C | 93% | 1022.4 hPa | - | - | - | - |
| 1788215422 | 15.56° C | 93% | 1022.3 hPa | - | - | - | - |
| 1788214521 | 16.11° C | 90% | 1022.2 hPa | - | - | - | - |
| 1788213621 | 16.67° C | 87% | 1022.2 hPa | - | - | - | - |
| 1788212721 | 17.22° C | 81% | 1022.4 hPa | - | - | - | - |
| 1788211821 | 18.33° C | 74% | 1022.2 hPa | - | - | - | - |
| 1788210921 | 18.33° C | 73% | 1022.1 hPa | - | - | - | - |
| 1788210021 | 18.33° C | 75% | 1021.7 hPa | - | - | - | - |
| 1788209120 | 17.78° C | 77% | 1021.5 hPa | - | - | - | - |
| 1788208220 | 17.78° C | 83% | 1021.5 hPa | - | - | - | - |
| 1788207320 | 17.22° C | 83% | 1021.3 hPa | - | - | - | - |
| 1788206419 | 17.22° C | 80% | 1021.2 hPa | - | - | - | - |
| 1788205519 | 17.22° C | 80% | 1021 hPa | - | - | - | - |
| 1788204619 | 17.22° C | 80% | 1020.8 hPa | - | - | - | - |
| 1788203718 | 17.78° C | 77% | 1020.6 hPa | - | - | - | - |
| 1788202818 | 17.78° C | 78% | 1020.6 hPa | - | - | - | - |
| 1788201918 | 17.78° C | 81% | 1020.5 hPa | - | - | - | - |
| 1788201017 | 17.78° C | 82% | 1020.4 hPa | - | - | - | - |
| 1788200117 | 17.78° C | 83% | 1020.1 hPa | - | - | - | - |
| 1788199221 | 17.78° C | 83% | 1020.1 hPa | - | - | - | - |
| 1788198321 | 17.78° C | 84% | 1020.2 hPa | - | - | - | - |
| 1788197420 | 17.78° C | 88% | 1020.1 hPa | - | - | - | - |
| 1788196520 | 18.33° C | 86% | 1019.9 hPa | - | - | - | - |
| 1788195620 | 18.33° C | 89% | 1019.7 hPa | - | - | - | - |
| 1788194720 | 18.89° C | 89% | 1019.9 hPa | - | - | - | - |
* Rain since midnight (hover to see other rain measurements)
** Current wind speed in m/s (hover to see current wind gust speed)